Vilalleons





Hora UTC 05:25
Temperatura 11.0 ºC
Humedad 97.0 %
Presión 1026.2 hPa
Pluja 0.0 mm
Velocidad viento 1.6 km/h
Dirección viento ENE

Datos diarios 2021-10-19



Hora UTC (invierno +1h; verano +2h)
Temperatura (ºC) Humedad (%) Presión (hPa) Velocidad viento (km/h) Precipitación (mm)
Hora UTC Aire Humedad Presión Vel. Dir. Vel. Max Dir. Intent. máx 5 min.
00:05 12.8 97.0 1026.0 0.0 ENE 0.0 0.0
00:10 12.8 97.0 1026.2 0.0 ENE 1.6 0.0
00:15 12.8 97.0 1026.2 1.6 ENE 1.6 0.0
00:20 12.6 96.0 1026.2 1.6 ENE 3.2 0.0
00:25 12.6 97.0 1026.2 1.6 ENE 3.2 0.0
00:30 12.6 97.0 1026.1 1.6 ENE 3.2 0.0
00:35 12.6 97.0 1026.1 1.6 ENE 3.2 0.0
00:40 12.5 97.0 1026.1 0.0 ENE 3.2 0.0
00:45 12.5 97.0 1026.1 1.6 ENE 3.2 0.0
00:50 12.6 97.0 1026.1 1.6 ENE 3.2 0.0
00:55 12.6 97.0 1026.2 1.6 ENE 1.6 0.0
00:55 12.6 97.0 1026.2 0.0 ENE 1.6 0.0
01:00 12.7 97.0 1026.2 0.0 ENE 1.6 0.0
01:05 12.7 97.0 1026.1 1.6 ENE 1.6 0.0
01:10 12.7 97.0 1026.2 1.6 ENE 3.2 0.0
01:15 12.7 97.0 1026.2 1.6 ENE 3.2 0.0
01:20 12.6 97.0 1026.1 3.2 ENE 3.2 0.0
01:25 12.5 97.0 1026.2 1.6 ENE 3.2 0.0
01:30 12.4 97.0 1026.2 0.0 ENE 3.2 0.0
01:35 12.4 97.0 1026.1 1.6 ENE 3.2 0.0
01:40 12.2 96.0 1026.1 1.6 ENE 3.2 0.0
01:45 12.0 96.0 1026.1 1.6 ENE 3.2 0.0
01:50 11.8 96.0 1026.1 1.6 ENE 3.2 0.0
01:55 11.7 96.0 1026.1 1.6 ENE 3.2 0.0
02:00 11.6 96.0 1026.2 1.6 ENE 3.2 0.0
02:05 11.6 97.0 1026.2 1.6 ENE 3.2 0.0
02:10 11.6 97.0 1026.1 3.2 ENE 3.2 0.0
02:15 11.6 97.0 1026.2 1.6 ENE 3.2 0.0
02:20 11.7 97.0 1026.2 1.6 ENE 3.2 0.0
02:25 11.8 97.0 1026.1 1.6 ENE 3.2 0.0
02:30 11.9 97.0 1026.1 0.0 ENE 3.2 0.0
02:35 12.1 98.0 1026.1 0.0 ENE 1.6 0.0
02:40 12.2 98.0 1026.1 1.6 ENE 3.2 0.0
02:45 12.2 98.0 1026.2 0.0 ENE 3.2 0.0
02:50 12.3 98.0 1026.2 0.0 ENE 1.6 0.0
02:55 12.4 98.0 1026.1 0.0 ENE 1.6 0.0
03:00 12.6 98.0 1026.0 0.0 ENE 0.0 0.0
03:05 12.6 98.0 1026.0 0.0 ENE 3.2 0.0
03:10 12.6 98.0 1026.1 0.0 ENE 3.2 0.0
03:15 12.7 98.0 1025.9 0.0 ENE 1.6 0.0
03:20 12.8 98.0 1026.1 0.0 ENE 0.0 0.0
03:25 12.8 97.0 1026.1 0.0 ENE 0.0 0.0
03:30 12.8 97.0 1026.0 0.0 ENE 0.0 0.0
03:35 12.8 98.0 1026.1 0.0 ENE 0.0 0.0
03:40 12.8 97.0 1026.1 0.0 ENE 0.0 0.0
03:45 12.7 97.0 1026.0 0.0 ENE 0.0 0.0
03:55 12.7 97.0 1026.0 0.0 ENE 0.0 0.0
04:00 12.7 97.0 1026.1 0.0 ENE 0.0 0.0
04:05 12.8 98.0 1026.0 0.0 ENE 0.0 0.0
04:10 12.8 97.0 1026.1 0.0 ENE 3.2 0.0
04:15 12.7 97.0 1026.1 0.0 ENE 3.2 0.0
04:20 12.6 97.0 1026.1 1.6 ENE 3.2 0.0
04:25 12.4 97.0 1026.1 1.6 ENE 3.2 0.0
04:30 12.3 97.0 1026.0 1.6 ENE 3.2 0.0
04:35 12.1 97.0 1026.1 3.2 ENE 3.2 0.0
04:40 11.9 97.0 1026.2 1.6 ENE 3.2 0.0
04:45 11.8 97.0 1026.1 0.0 ENE 4.8 0.0
04:50 11.7 97.0 1026.0 0.0 ENE 4.8 0.0
04:55 11.5 97.0 1026.0 0.0 ENE 3.2 0.0
05:00 11.5 97.0 1026.1 1.6 ENE 3.2 0.0
05:05 11.4 97.0 1026.1 3.2 ENE 3.2 0.0
05:10 11.3 97.0 1026.1 1.6 ENE 3.2 0.0
05:15 11.2 97.0 1026.1 1.6 ENE 3.2 0.0
05:20 11.1 97.0 1026.2 3.2 ENE 3.2 0.0
05:25 11.0 97.0 1026.2 1.6 ENE 4.8 0.0
Máxima 12.8 98.0 1026.2 3.2 ENE 4.8 0.0
Mínima 11.0 96.0 1025.9
Total 0.0